Regional Weather Roundup
Issued by NWS

Home | Current Version | Previous Version | Text Only | Print | Product List | Glossary Off
Versions: 1 2 3 4 5 6 7 8 9 10 11 12 13 14 15 16 17 18 19 20 21 22 23 24 25 26 27

000
ASUS45 KCYS 180610
RWRWY

WYOMING REGIONAL WEATHER ROUNDUP
NATIONAL WEATHER SERVICE CHEYENNE WY
1100 PM MST SUN DEC 17 2017

NOTE:  "FAIR" INDICATES FEW OR NO CLOUDS BELOW 12,000 FEET
WITH NO SIGNIFICANT WEATHER AND/OR OBSTRUCTIONS TO VISIBILITY.

WYZ001-180700-
YELLOWSTONE NATIONAL PARK

CITY           SKY/WX    TMP DP  RH WIND       PRES   REMARKS
LK YELLOWSTONE   N/A     13  11  92 CALM      30.10R
6HR MIN TEMP:  13; 6HR MAX TEMP:  13; 6HR PCP:  0.01;

W YELLOWSTONE  NOT AVBL

$$
WYZ002>013-054>058-071-098>099-180700-
NORTHERN WYOMING

CITY           SKY/WX    TMP DP  RH WIND       PRES   REMARKS
JACKSON        CLOUDY    22  15  75 S15       30.13F WCI   9
CODY           FAIR      35  18  49 VRB5G20   29.90F WCI  31
GREYBULL       FAIR      15  14  95 SE5       29.97S WCI   8
6HR MIN TEMP:  14; 6HR MAX TEMP:  23;

WORLAND        MOCLDY    11  10  96 SW6       29.96F WCI   1
6HR MIN TEMP:   9; 6HR MAX TEMP:  17;

SHERIDAN       FAIR      19  16  88 S6        29.83F WCI  11
6HR MIN TEMP:  14; 6HR MAX TEMP:  19;

BUFFALO        FAIR      31  13  47 CALM      29.85F
6HR MIN TEMP:  24; 6HR MAX TEMP:  31;

GILLETTE       FAIR      28  15  58 S12       29.85F WCI  18
6HR MIN TEMP:  21; 6HR MAX TEMP:  29;

HULETT         FAIR      32  19  59 SW13      29.86F WCI  22
NEWCASTLE      FAIR      14  14 100 SE6       29.91R WCI   5

$$
WYZ014>020-022>026-101>103-180700-
CENTRAL WYOMING

CITY           SKY/WX    TMP DP  RH WIND       PRES   REMARKS
BIG PINEY      CLOUDY    20  13  74 NW6       30.10S WCI  12
6HR MIN TEMP:  16; 6HR MAX TEMP:  25;

PINEDALE       FAIR      18  12  79 W13       30.09S WCI   4
DUBOIS         CLOUDY    23  16  74 NW22      29.98S WCI   8
LANDER         FAIR      22  14  71 CALM      29.95R
6HR MIN TEMP:  16; 6HR MAX TEMP:  27;

RIVERTON       FAIR      21  15  78 SW3       29.96R
6HR MIN TEMP:  13; 6HR MAX TEMP:  22;

CASPER         FAIR      28  17  63 SW20G30   29.95R WCI  15
6HR MIN TEMP:  25; 6HR MAX TEMP:  29;

DOUGLAS        FAIR      25  16  68 SW3       29.92R
6HR MIN TEMP:  21; 6HR MAX TEMP:  32;


$$
WYZ021-027>030-104>119-180700-
SOUTHERN WYOMING

CITY           SKY/WX    TMP DP  RH WIND       PRES   REMARKS
EVANSTON       CLOUDY    19  16  88 SW9       30.18R WCI   8
6HR MIN TEMP:  16; 6HR MAX TEMP:  24;

FORT BRIDGER   FAIR      21  15  76 W16       30.18R WCI   7
ROCK SPRINGS   FAIR      21  12  68 SW17G28   30.10R WCI   7
6HR MIN TEMP:  21; 6HR MAX TEMP:  25;

DIXON          FAIR      18  14  84 SE5       30.18R WCI  11
RAWLINS        FAIR      23  14  68 W13G21    30.08R WCI  11
6HR MIN TEMP:  22; 6HR MAX TEMP:  27;

LARAMIE        FAIR      24  13  62 SW23      29.96R WCI   9
6HR MIN TEMP:  21; 6HR MAX TEMP:  26;

CHEYENNE       FAIR      24  22  91 SW6       29.93R WCI  17
6HR MIN TEMP:  24; 6HR MAX TEMP:  35;

TORRINGTON     FAIR      24  13  62 S3        29.93R
6HR MIN TEMP:  21; 6HR MAX TEMP:  39;

PINE BLUFFS    FAIR      19  19 100 CALM      29.95S

$$




USA.gov is the U.S. government's official web portal to all federal, state and local government web resources and services.